Regional Weather Roundup
Issued by NWS

Home | Current Version | Previous Version | Text Only | Print | Product List | Glossary Off
Versions: 1 2 3 4 5 6 7 8 9 10 11 12 13 14 15 16 17 18 19 20 21 22 23 24 25 26 27 28 29 30 31 32 33 34 35 36 37 38 39 40 41 42 43 44 45 46 47 48 49 50

000
ASUS43 KMPX 250201
RWRMN
WEATHER ROUNDUP FOR MINNESOTA
NATIONAL WEATHER SERVICE TWIN CITIES/CHANHASSEN MN
900 PM CDT FRI OCT 24 2014


NOTE: "FAIR" INDICATES FEW OR NO CLOUDS BELOW 12,000 FEET WITH NO
SIGNIFICANT WEATHER AND/OR OBSTRUCTIONS TO VISIBILITY. N/A MEANS
CURRENT SKY AND/OR WEATHER CONDITIONS ARE NOT AVAILABLE.

MNZ060>063-068>070-250300-
   Twin Cities Metro

CITY           SKY/WX    TMP DP  RH WIND       PRES   REMARKS
TWIN CITIES    MOCLDY    62  52  69 SW7       29.85S
ST PAUL        PTCLDY    54  54 100 SE5       29.86S
CRYSTAL        PTCLDY    60  51  72 SW7       29.83S
BLAINE         MOCLDY    61  54  77 S6        29.84
LAKEVILLE      PTCLDY    57  52  82 SW5       29.86S
EDEN PRAIRIE   PTCLDY    60  51  72 SW7       29.85S
SOUTH ST PAUL  PTCLDY    51  50  94 S3        29.86R FOG
LAKE ELMO      FOG       50  50 100 CALM      29.87R VSB<1/4
$$
MNZ001>005-007-008-013>017-022>024-027-028-250300-
   Northwest Minnesota

CITY           SKY/WX    TMP DP  RH WIND       PRES   REMARKS
BEMIDJI        MOCLDY    60  32  34 W20G26    29.80R
HALLOCK        PTCLDY    48  36  61 W9        29.80R
ROSEAU         CLEAR     55  37  50 W10       29.76R
WARROAD        CLEAR     54  39  58 W9        29.75R
THIEF RVR FALL MOCLDY    55  32  41 W13       29.83R
CROOKSTON      PTCLDY    54  34  47 W9        29.85R
FOSSTON        PTCLDY    55  34  44 W10G16    29.84R
DETROIT LAKES  CLEAR     59  36  41 NW12      29.89R
MOORHEAD       CLEAR     63  23  22 W7        29.89R
PARK RAPIDS    MOCLDY    59  38  45 NW15      29.83R
MAHNOMEN       FAIR      58  33  39 W20G25    29.85R
$$
MNZ006-009>011-018-025>026-250300-
   North Central Minnesota

CITY           SKY/WX    TMP DP  RH WIND       PRES   REMARKS
BAUDETTE       CLEAR     58  36  43 W8        29.72R
FLAG ISLAND    CLEAR     57  36  44 W15G23    29.69R
INTL FALLS     PTCLDY    61  33  35 W17G29    29.69R
WASKISH        PTCLDY    55  43  62 W10G18    29.76R
BIG FORK       CLEAR     63  36  36 W9G22     29.75S
LONGVILLE      MOCLDY    59  41  51 W7        29.80R
GRAND RAPIDS   PTCLDY    63  39  42 W8        29.77R
CRANE LAKE     MOCLDY    63  36  36 W8        29.68S
ORR            MOCLDY    63  37  39 W12G18    29.68S
COOK           MOCLDY    63  39  42 W14G23    29.72R
WALKER         FAIR      62  34  35 W12G20    29.80R
$$
MNZ012-019>021-037-250300-
   Northeast Minnesota

CITY           SKY/WX    TMP DP  RH WIND       PRES   REMARKS
DULUTH         PTCLDY    59  49  69 SW15      29.75F
ELY            PTCLDY    61  39  44 SW12G17   29.69S
HIBBING        PTCLDY    49  40  71 CALM      29.74S
EVELETH        PTCLDY    57  41  54 SW9       29.74F
DULUTH HARBOR  PTCLDY    59  54  82 SW13      29.76R
TWO HARBORS    CLEAR     61  41  48 W7        29.72S
SILVER BAY     CLEAR     59  52  77 SW5       29.70F
GRAND MARAIS     N/A     48  46  93 W5        29.67F
G MARAIS ARPRT PTCLDY    52  46  82 SW7       29.68F
$$
MNZ029>031-032-039>041-046>048-054>057-064-250300-
   West Central Minnesota

CITY           SKY/WX    TMP DP  RH WIND       PRES   REMARKS
FERGUS FALLS   PTCLDY    63  28  27 NW20G25   29.89R
WHEATON        PTCLDY    61  43  51 W8        29.93R
MORRIS         PTCLDY    55  43  62 NW10      29.89R
ALEXANDRIA     CLEAR     63  42  46 W14G22    29.89R
ELBOW LAKE     FAIR      62  39  42 NW13G18   29.89R
WADENA         PTCLDY    61  43  51 NW9       29.84S
GLENWOOD       PTCLDY    61  43  51 W12       29.88R
APPLETON       PTCLDY    57  43  58 W7        29.89R
BENSON         PTCLDY    55  43  62 NW9       29.88R
ORTONVILLE     PTCLDY    64  41  42 NW10      29.91R
MADISON        PTCLDY    59  43  55 W8        29.90R
WILLMAR        FAIR      55  41  58 W7        29.89S
$$
MNZ033>034-036-042>043-049>051-058-059-250300-
   Central Minnesota

CITY           SKY/WX    TMP DP  RH WIND       PRES   REMARKS
ST CLOUD       MOCLDY    59  43  55 SW3       29.83S
SAUK CENTRE    FAIR      59  43  55 W10       29.87R
PAYNESVILLE    PTCLDY    54  42  63 SW7       29.86S
AITKIN         MOCLDY    61  41  48 CALM      29.77F
PINE RIVER     MOCLDY    61  43  51 W5        29.85R
BRAINERD       CLOUDY    56  41  57 SW9       29.82R
STAPLES        MOCLDY    61  41  48 W10       29.84R
LONG PRAIRIE   FAIR      63  41  45 W10       29.87R
LITTLE FALLS   MOCLDY    54  41  62 CALM      29.84R
LITCHFIELD     MOCLDY    61  45  55 SW5       29.86F
BUFFALO        MOCLDY    59  47  64 S3        29.85F
MAPLE LAKE     MOCLDY    60  46  61 SW6       29.85S HAZE
$$
MNZ037-044-045-052-053-250300-
   East Central Minnesota

CITY           SKY/WX    TMP DP  RH WIND       PRES   REMARKS
PRINCETON      MOCLDY    57  50  77 CALM      29.83S
MORA           MOCLDY    52  46  82 CALM      29.83F
CAMBRIDGE      MOCLDY    57  48  72 CALM      29.81S
RUSH CITY      MOCLDY    53  51  92 CALM      29.83R
MOOSE LAKE     MOCLDY    55  48  76 SW5       29.77F
HINCKLEY       FAIR      54  50  87 CALM      29.81S
CLOQUET        MOCLDY    57  48  72 SW7       29.77S
MCGREGOR       MOCLDY    55  45  67 SW6       29.79S
$$
MNZ071>073-080-081-089-090-097-098-250300-
   Southwest Minnesota

CITY           SKY/WX    TMP DP  RH WIND       PRES   REMARKS
MONTEVIDEO     PTCLDY    63  41  45 W3        29.89S
GRANITE FALLS  PTCLDY    55  43  63 W9        29.91R
CANBY          PTCLDY    61  41  47 W9        29.91S
MARSHALL       PTCLDY    55  39  54 W7        29.90S
REDWOOD FALLS  MOCLDY    64  41  42 W10       29.89S
OLIVIA         CLOUDY    55  43  62 SW7       29.88R
PIPESTONE      CLEAR     57  39  51 CALM      29.95S
WINDOM         PTCLDY    54  39  58 W7        29.93R
WORTHINGTON    CLEAR     54  39  58 W6        29.96R
JACKSON        CLEAR     54  37  54 W6        29.94S
TRACY          CLEAR     58  42  55 SW9       29.92S
SLAYTON        CLEAR     56  40  55 CALM      29.94S
$$
MNZ065>067-074>077-082>085-091>093-250300-
   South Central Minnesota

CITY           SKY/WX    TMP DP  RH WIND       PRES   REMARKS
MANKATO        MOCLDY    57  46  67 SW5       29.89R
NEW ULM        CLOUDY    55  45  67 SW5       29.89S
ST JAMES       MOCLDY    54  41  62 SW3       29.92R
FAIRMONT       MOCLDY    54   7  15 SW3       29.91S
GLENCOE        MOCLDY    60  51  72 SW5       29.86S
FARIBAULT      FAIR      54  50  87 CALM      29.89R
OWATONNA       PTCLDY    57  50  77 S6        29.89S
WASECA         MOCLDY    50  45  81 CALM      29.91S
ALBERT LEA     MOCLDY    54  52  94 CALM      29.90S FOG
$$
MNZ078>079-086>088-094>096-250300-
   Southeast Minnesota

CITY           SKY/WX    TMP DP  RH WIND       PRES   REMARKS
ROCHESTER      FOG       56  56 100 S8        29.90F VSB 1/4
RED WING       MOCLDY    50  48  93 CALM      29.86S FOG
STANTON        PTCLDY    52  49  89 SW6       29.86S
DODGE CENTER   PTCLDY    52  52 100 SW6       29.90S FOG
WINONA         CLOUDY    54  54 100 CALM      29.89F FOG
AUSTIN         DRZL/FOG  52  52 100 CALM      29.91R VSB<1/4
PRESTON        FOG       57  56  96 SW7       29.91S VSB 1/2
$$
ABBREVIATIONS USED IN REMARKS
   TC - TEMPERATURES IN CELSIUS
  WCI - WIND CHILL INDEX
   HX - HEAT INDEX
  VSB - VISIBILITY
$$



USA.gov is the U.S. government's official web portal to all federal, state and local government web resources and services.